STARLINK-35770

Last updated on Fri Dec 19 2025 00:02:09 GMT+0000 (Coordinated Universal Time)

1 66977U 25288U 25352.58336806 -.01480747 00000+0 -64689-2 0 9993 2 66977 43.0014 131.3335 0001356 272.4443 327.7137 15.86291198 2775
UTC large
Height (km)
Speed (km/s)
/
Latitude / Longitude
Inclination (degrees)
Orbital Period (minutes)
Azimuth
Elevation
Range (km)
Doppler Factor

Next 0 passes for location: London (51.5072 / 0.1276)

Sorry there are no passes over London.